Location: Cheching
(60.0667°N, 164.2167°W)
Time: 20:49:58
(UTC+00:00)

LilacSat-2 - Pass Details

Date: 21 January 2021
Orbit: 512 x 534 km, 97.5° (Epoch: 07 March)

Event Time Altitude Azimuth Distance (km) Brightness Sun altitude
Rises 17:25:47 0° 15° (NNE) 2,686 ? -14.9°
Reaches altitude 10° 17:27:55 10° 13° (NNE) 1,794 ? -14.6°
Maximum altitude 17:31:46 72° 290° (WNW) 569 ? -14.2°
Drops below altitude 10° 17:35:37 10° 206° (SSW) 1,790 ? -13.7°
Sets 17:37:44 0° 204° (SSW) 2,678 ? -13.4°
